Weather in Vysokogorye

Russia / Kirov Oblast     58°14′27″N   47°11′37″E
temp.,
°C
wind,
m/s
gust,
m/s
humid.,
%
clouds,
%
prec.,
mm/h
press.,
hPa
HPBL,
m
28 october, thu
thu2800:00+3wsw51196100 0.7 1004966
03:00+4w51197100 1.1 10041100
06:00+5w51188100 0.2 1004842
09:00+4w5993100 0.2 1006918
12:00+6w5983100 0.1 1007872
15:00+5w4893100 0.4 10081023
18:00+2n5982100 1.0 1012667
21:00−3n410755 1.0 1017620
29 october, fri
fri2900:00−4n39765 0.0 1020571
03:00−4n26755 0.0 1023388
06:00−4nne1376100 0.0 1025153
09:00−3s2263100 0.0 1026273
12:000ssw354370 0.0 1026609
15:000ssw4844100 0.0 1024626
18:00−1ssw41252100 0.0 1022546
21:00−1ssw51496100 0.6 1020498
30 october, sat
sat3000:00+2sw51493100 1.6 1017667
03:00+4wsw61496100 1.7 1015627
06:00+5wsw51395100 0.0 1015803
09:00+6w51393100 0.0 1016805
12:00+7w51187100 0.0 1017870
15:00+7w5128518 0.0 1018609
18:00+6wnw4986100 0.0 1020338
21:00+6w2788100 0.0 1021184
31 october, sun
sun3100:00+7w2684100 0.0 1022156
03:00+7w3679100 0.0 1022157
06:00+4sw389757 0.0 1022169
09:00+5sw31097100 0.0 1021300
12:00+7wsw51088100 0.0 1020499
15:00+8wsw51281100 0.0 1019610
18:00+6wsw4138998 0.0 1019483
21:00+6wsw4129285 0.0 1020431
1 november, mon
mon100:00+4wsw4119483 0.0 1020378
03:00+4wsw31095100 0.0 1020282
06:00+3wsw31094100 0.0 1019301
09:00+4wsw4118899 0.0 1019424
12:00+6wsw41078100 0.0 1019483
15:00+6wsw41080100 0.0 1018488
18:00+5wsw31188100 0.0 1019355
21:00+4w31094100 0.0 1020293